This is the latest recevied weather packets stored in our database for station/object KD5FHA. If no packets are shown the sender has not sent any weather packets the latest 1 day(s).
| Time | Temp. | Humidity | Pressure | Rain* | Wind** | Luminosity | Snow |
|---|---|---|---|---|---|---|---|
| 1778020216 | 31.11° C | 59% | 1004.7 hPa | 0 mm | 3.13 m/s, 204° | 238 W/m² | - |
| 1778019900 | 31.67° C | 58% | 1004.6 hPa | 0 mm | 3.13 m/s, 212° | 425 W/m² | - |
| 1778019596 | 31.67° C | 59% | 1004.7 hPa | 0 mm | 0.45 m/s, 200° | 494 W/m² | - |
| 1778019293 | 31.67° C | 60% | 1004.5 hPa | 0 mm | 0.45 m/s, 142° | 294 W/m² | - |
| 1778018990 | 31.67° C | 59% | 1004.6 hPa | 0 mm | 0.89 m/s, 159° | 268 W/m² | - |
| 1778018687 | 31.67° C | 59% | 1004.5 hPa | 0 mm | 2.24 m/s, 206° | 278 W/m² | - |
| 1778018385 | 31.67° C | 58% | 1004.4 hPa | 0 mm | 3.13 m/s, 215° | 426 W/m² | - |
| 1778018083 | 31.11° C | 59% | 1004.4 hPa | 0 mm | 3.13 m/s, 204° | 417 W/m² | - |
| 1778017780 | 31.67° C | 58% | 1004.5 hPa | 0 mm | 1.79 m/s, 188° | 276 W/m² | - |
| 1778017478 | 32.78° C | 56% | 1004.7 hPa | 0 mm | 2.24 m/s, 218° | 483 W/m² | - |
| 1778017175 | 32.78° C | 56% | 1004.7 hPa | 0 mm | 2.24 m/s, 209° | 435 W/m² | - |
| 1778016873 | 32.78° C | 55% | 1004.6 hPa | 0 mm | 2.24 m/s, 216° | 504 W/m² | - |
| 1778016569 | 32.22° C | 57% | 1004.7 hPa | 0 mm | 0 m/s | 478 W/m² | - |
| 1778016266 | 32.22° C | 56% | 1004.7 hPa | 0 mm | 3.13 m/s, 199° | 415 W/m² | - |
| 1778015962 | 32.22° C | 55% | 1004.9 hPa | 0 mm | 1.79 m/s, 223° | 381 W/m² | - |
| 1778015660 | 32.78° C | 53% | 1004.8 hPa | 0 mm | 1.79 m/s, 207° | 615 W/m² | - |
| 1778015356 | 32.78° C | 54% | 1004.8 hPa | 0 mm | 0.89 m/s, 197° | 792 W/m² | - |
| 1778015054 | 32.22° C | 56% | 1005.1 hPa | 0 mm | 2.68 m/s, 200° | 314 W/m² | - |
| 1778014750 | 33.33° C | 53% | 1005.4 hPa | 0 mm | 0.89 m/s, 212° | 866 W/m² | - |
| 1778014449 | 32.78° C | 53% | 1005.2 hPa | 0 mm | 0.45 m/s, 271° | 702 W/m² | - |
| 1778014145 | 32.78° C | 54% | 1005.3 hPa | 0 mm | 1.79 m/s, 203° | 887 W/m² | - |
| 1778013843 | 32.22° C | 55% | 1005.2 hPa | 0 mm | 1.34 m/s, 226° | 428 W/m² | - |
| 1778013540 | 30.56° C | 58% | 1005.3 hPa | 0 mm | 3.13 m/s, 212° | 801 W/m² | - |
| 1778013236 | 31.11° C | 58% | 1005.4 hPa | 0 mm | 4.02 m/s, 204° | 227 W/m² | - |
| 1778012932 | 31.67° C | 57% | 1005.5 hPa | 0 mm | 4.47 m/s, 202° | 382 W/m² | - |
* Rain latest hour (hover to see other rain measurements)
** Current wind speed in m/s (hover to see current wind gust speed)